Weather History for KJFZ - January, 2014

Change the Weather History Date:

Monday, January 20, 2014

  Actual Average (KBLF) Record (KBLF)
Temperature  
Mean Temperature 43 °F 34 °F  
Max Temperature 51 °F 42 °F 60 °F (1988)
Min Temperature 35 °F 26 °F -20 °F (1985)
Degree Days  
Heating Degree Days 22 31  
Month to date heating degree days 620  
Since 1 July heating degree days 2385  
Cooling Degree Days 0 0  
Month to date cooling degree days 0  
Year to date cooling degree days 0  
Moisture  
Dew Point 25 °F    
Average Humidity 52    
Maximum Humidity 64    
Minimum Humidity 38    
Precipitation  
Precipitation 0.00 in 0.09 in 2.05 in (1972)
Month to date precipitation 1.88  
Year to date precipitation 1.88  
Snow  
Snow 0.00 in - - ()
Month to date snowfall  
Since 1 July snowfall  
Snow Depth -    
Sea Level Pressure  
Sea Level Pressure 29.83 in    
Wind  
Wind Speed 12 mph (WSW)    
Max Wind Speed 20 mph    
Max Gust Speed 31 mph    
Visibility 10 miles    
Events      
T = Trace of Precipitation, MM = Missing Value Source: NWS Daily Summary

Daily Weather History Graph

Daily Weather History Graph

Search for Another Location

Airport or City:

Trip Planner

Search our weather history database for the weather conditions in past years. The results will help you decide how hot, cold, wet, or windy it might be!

Date:

Astronomy

Jan. 20, 2014 Rise Set
Actual Time 7:37 AM EST 5:39 PM EST
Civil Twilight 7:09 AM EST 6:07 PM EST
Nautical Twilight 6:37 AM EST 6:38 PM EST
Astronomical Twilight 6:06 AM EST 7:10 PM EST
Moon 10:05 PM EST (1/20) 9:43 AM EST (1/20)
Length of Visible Light 10h 57m
Length of Day
10h 01m
Waning Gibbous, 83% of the Moon is Illuminated
Jan 20
Waning Gibbous
Jan 24
Last Quarter
Jan 30
New
Feb 6
First Quarter
Feb 14
Full

Hourly Weather History & Observations

Time (EST) Temp. Windchill Dew Point Humidity Pressure Visibility Wind Dir Wind Speed Gust Speed Precip Events Conditions
12:15 AM 36.5 °F 29.2 °F 25.5 °F 64% 29.85 in 10.0 mi SW 10.4 mph 23.0 mph N/A   Clear
12:35 AM 36.7 °F 27.2 °F 25.5 °F 64% 29.85 in 10.0 mi WSW 16.1 mph 26.5 mph N/A   Clear
12:55 AM 36.7 °F 28.4 °F 24.8 °F 62% 29.85 in 10.0 mi WSW 12.7 mph 26.5 mph N/A   Clear
1:15 AM 37.0 °F 28.5 °F 24.6 °F 61% 29.84 in 10.0 mi WSW 13.8 mph 24.2 mph N/A   Clear
1:35 AM 37.0 °F 26.7 °F 25.2 °F 62% 29.83 in 10.0 mi WSW 19.6 mph 28.8 mph N/A   Clear
1:55 AM 36.9 °F 27.5 °F 24.8 °F 62% 29.83 in 10.0 mi WSW 16.1 mph 27.6 mph N/A   Clear
2:15 AM 36.7 °F 26.9 °F 24.8 °F 62% 29.83 in 10.0 mi WSW 17.3 mph 28.8 mph N/A   Clear
2:35 AM 36.7 °F 26.3 °F 24.6 °F 62% 29.83 in 10.0 mi WSW 19.6 mph 31.1 mph N/A   Clear
2:55 AM 36.1 °F 26.5 °F 24.8 °F 63% 29.84 in 10.0 mi WSW 16.1 mph 28.8 mph N/A   Clear
3:15 AM 36.0 °F 26.7 °F 24.6 °F 63% 29.84 in 10.0 mi WSW 15.0 mph 27.6 mph N/A   Clear
3:35 AM 35.6 °F 27.1 °F 24.6 °F 64% 29.84 in 10.0 mi SW 12.7 mph 31.1 mph N/A   Clear
3:55 AM 35.6 °F 26.6 °F 24.4 °F 64% 29.84 in 10.0 mi WSW 13.8 mph 29.9 mph N/A   Clear
4:15 AM 35.6 °F 25.9 °F 23.9 °F 62% 29.84 in 10.0 mi WSW 16.1 mph 28.8 mph N/A   Clear
4:35 AM 35.6 °F 26.2 °F 23.9 °F 62% 29.84 in 10.0 mi WSW 15.0 mph 26.5 mph N/A   Clear
4:55 AM 35.6 °F 25.9 °F 23.7 °F 62% 29.84 in 10.0 mi WSW 16.1 mph 27.6 mph N/A   Clear
5:15 AM 35.1 °F 26.4 °F 23.9 °F 64% 29.84 in 10.0 mi WSW 12.7 mph 23.0 mph N/A   Clear
5:35 AM 35.2 °F 27.6 °F 23.7 °F 63% 29.84 in 10.0 mi WSW 10.4 mph 23.0 mph N/A   Clear
5:55 AM 35.2 °F 25.4 °F 23.2 °F 62% 29.84 in 10.0 mi SW 16.1 mph 24.2 mph N/A   Clear
6:15 AM 35.6 °F 25.9 °F 22.6 °F 59% 29.84 in 10.0 mi WSW 16.1 mph 24.2 mph N/A   Clear
6:35 AM 35.8 °F 26.5 °F 22.5 °F 58% 29.84 in 10.0 mi WSW 15.0 mph 28.8 mph N/A   Clear
6:55 AM 35.8 °F 26.9 °F 22.5 °F 58% 29.84 in 10.0 mi WSW 13.8 mph 31.1 mph N/A   Clear
7:15 AM 35.6 °F 25.9 °F 22.6 °F 59% 29.84 in 10.0 mi WSW 16.1 mph 23.0 mph N/A   Clear
7:35 AM 35.6 °F 26.2 °F 22.6 °F 59% 29.84 in 10.0 mi WSW 15.0 mph 21.9 mph N/A   Clear
7:55 AM 35.8 °F 26.9 °F 22.5 °F 58% 29.84 in 10.0 mi WSW 13.8 mph 24.2 mph N/A   Clear
8:15 AM 35.8 °F 25.7 °F 22.8 °F 59% 29.85 in 10.0 mi WSW 17.3 mph 23.0 mph N/A   Clear
8:35 AM 36.0 °F 25.3 °F 23.0 °F 59% 29.84 in 10.0 mi WSW 19.6 mph 27.6 mph N/A   Clear
8:55 AM 36.5 °F 28.2 °F 23.0 °F 58% 29.85 in 10.0 mi WSW 12.7 mph 29.9 mph N/A   Clear
9:15 AM 37.4 °F 30.3 °F 23.2 °F 57% 29.84 in 10.0 mi WSW 10.4 mph 24.2 mph N/A   Clear
9:35 AM 38.3 °F 29.7 °F 23.2 °F 55% 29.85 in 10.0 mi West 15.0 mph 26.5 mph N/A   Clear
9:55 AM 38.8 °F 31.6 °F 23.7 °F 55% 29.86 in 10.0 mi West 11.5 mph 20.7 mph N/A   Clear
10:15 AM 39.2 °F 33.6 °F 24.8 °F 56% 29.86 in 10.0 mi West 8.1 mph 16.1 mph N/A   Clear
10:35 AM 41.4 °F 36.2 °F 25.7 °F 54% 29.86 in 10.0 mi West 8.1 mph - N/A   Clear
10:55 AM 41.5 °F 37.1 °F 25.5 °F 53% 29.86 in 10.0 mi West 6.9 mph - N/A   Clear
11:15 AM 42.1 °F 38.4 °F 25.5 °F 52% 29.86 in 10.0 mi West 5.8 mph - N/A   Clear
11:35 AM 44.1 °F 40.8 °F 25.9 °F 49% 29.85 in 10.0 mi West 5.8 mph - N/A   Clear
11:55 AM 45.1 °F 42.0 °F 26.2 °F 48% 29.84 in 10.0 mi West 5.8 mph - N/A   Clear
12:15 PM 45.9 °F 42.9 °F 27.0 °F 48% 29.84 in 10.0 mi West 5.8 mph 9.2 mph N/A   Clear
12:35 PM 47.3 °F - 27.1 °F 46% 29.82 in 10.0 mi West 6.9 mph - N/A   Clear
12:55 PM 47.7 °F - 27.1 °F 45% 29.81 in 10.0 mi West 10.4 mph - N/A   Clear
1:15 PM 48.2 °F - 27.0 °F 44% 29.81 in 10.0 mi West 9.2 mph 16.1 mph N/A   Clear
1:35 PM 48.6 °F - 26.8 °F 43% 29.81 in 10.0 mi West 13.8 mph 19.6 mph N/A   Clear
1:55 PM 48.9 °F - 26.6 °F 42% 29.80 in 10.0 mi WSW 17.3 mph 21.9 mph N/A   Clear
2:15 PM 49.6 °F - 26.8 °F 41% 29.80 in 10.0 mi West 12.7 mph 18.4 mph N/A   Clear
2:35 PM 49.5 °F - 26.1 °F 40% 29.80 in 10.0 mi West 13.8 mph 20.7 mph N/A   Clear
2:55 PM 50.4 °F - 26.4 °F 39% 29.80 in 10.0 mi West 11.5 mph 16.1 mph N/A   Clear
3:15 PM 50.7 °F - 26.4 °F 39% 29.80 in 10.0 mi WSW 11.5 mph 17.3 mph N/A   Clear
3:35 PM 50.9 °F - 26.2 °F 38% 29.81 in 10.0 mi West 13.8 mph 17.3 mph N/A   Clear
3:55 PM 51.1 °F - 26.6 °F 39% 29.81 in 10.0 mi WSW 8.1 mph 16.1 mph N/A   Clear
4:15 PM 50.9 °F - 26.1 °F 38% 29.81 in 10.0 mi West 10.4 mph 16.1 mph N/A   Clear
4:35 PM 50.4 °F - 26.6 °F 40% 29.82 in 10.0 mi WSW 6.9 mph - N/A   Clear
4:55 PM 50.0 °F - 25.7 °F 39% 29.83 in 10.0 mi WSW 5.8 mph - N/A   Clear
5:15 PM 49.5 °F - 25.7 °F 40% 29.83 in 10.0 mi SW 8.1 mph - N/A   Clear
5:35 PM 48.7 °F - 25.7 °F 41% 29.83 in 10.0 mi SW 6.9 mph - N/A   Clear
5:55 PM 48.2 °F - 25.5 °F 41% 29.84 in 10.0 mi SW 6.9 mph - N/A   Clear
6:15 PM 48.0 °F - 25.5 °F 41% 29.84 in 10.0 mi SW 9.2 mph - N/A   Clear
6:35 PM 47.5 °F - 25.7 °F 43% 29.85 in 10.0 mi SW 10.4 mph - N/A   Clear
6:55 PM 47.3 °F - 25.7 °F 43% 29.85 in 10.0 mi WSW 8.1 mph - N/A   Clear
7:15 PM 46.8 °F - 25.7 °F 44% 29.84 in 10.0 mi WSW 9.2 mph - N/A   Clear
7:35 PM 46.2 °F 42.2 °F 25.9 °F 45% 29.84 in 10.0 mi WSW 8.1 mph - N/A   Clear
7:55 PM 45.9 °F 41.2 °F 25.7 °F 45% 29.84 in 10.0 mi WSW 9.2 mph - N/A   Clear
8:15 PM 46.2 °F 42.2 °F 25.5 °F 44% 29.84 in 10.0 mi WSW 8.1 mph - N/A   Clear
8:35 PM 46.0 °F 42.5 °F 25.5 °F 45% 29.84 in 10.0 mi WSW 6.9 mph - N/A   Clear
8:55 PM 45.5 °F 41.8 °F 25.7 °F 46% 29.83 in 10.0 mi WSW 6.9 mph - N/A   Clear
9:15 PM 44.6 °F 40.7 °F 25.7 °F 48% 29.83 in 10.0 mi WSW 6.9 mph - N/A   Clear
9:35 PM 44.2 °F 41.0 °F 25.7 °F 48% 29.83 in 10.0 mi WSW 5.8 mph - N/A   Clear
9:55 PM 43.9 °F 41.3 °F 25.7 °F 49% 29.82 in 10.0 mi WSW 4.6 mph - N/A   Clear
10:15 PM 43.9 °F 42.3 °F 25.7 °F 49% 29.81 in 10.0 mi SW 3.5 mph - N/A   Clear
10:35 PM 42.6 °F 39.9 °F 25.7 °F 51% 29.81 in 10.0 mi SW 4.6 mph - N/A   Clear
10:55 PM 43.0 °F - 25.7 °F 51% 29.80 in 10.0 mi Calm Calm - N/A   Clear
11:15 PM 42.4 °F - 25.7 °F 52% 29.80 in 10.0 mi Calm Calm - N/A   Clear
11:35 PM 42.3 °F - 25.7 °F 52% 29.79 in 10.0 mi Calm Calm - N/A   Clear
11:55 PM 42.4 °F - 25.7 °F 52% 29.78 in 10.0 mi Calm Calm - N/A   Clear